Location: Astronomy Club of Akron Observatory
(40.9700°N, 81.5606°W)
Time: 09:51:15
(UTC-05:00)

Hubble Space Telescope - Pass Details

Date: 30 October 2021
Orbit: 534 x 538 km, 28.5° (Epoch: 09 December)

Event Time Altitude Azimuth Distance (km) Brightness Sun altitude
Rises 20:42:27 0° 233° (SW) 2,661 5.0 -26.6°
Reaches altitude 10° 20:45:38 10° 207° (SSW) 1,771 3.6 -27.2°
Enters shadow 20:46:05 11° 202° (SSW) 1,689 3.5 -27.3°
